C/2020 K4 ( PanSTARRS )

Japanese version
Home page
Updated on July 8, 2020

---------------------------------------------------------------------

* Profile

Discovery Date May 20, 2020
Magnitude 19.7 mag
Discoverer R. Wainscoat (Pan-STARRS1 1.8-m Ritchey-Chretien reflector at Haleakala)

* Orbital Elements

Epoch 2020 Mar. 12.0 TT = JDT 2458920.5
T 2020 Mar. 6.43325 TT                                  Rudenko
q   1.7722458            (2000.0)            P               Q
z  +0.0225334      Peri.  310.25516     +0.37882697     -0.45536339
 +/-0.0000000      Node   264.10381     -0.38603121     -0.86897283
e   0.9600654      Incl.  125.90663     -0.84111238     +0.19372762
From 43 observations 2020 May 20-June 27, mean residual 0".2.

* Magnitudes Graph

        m1 = 16.5 + 5 log d + 10.0 log r

---------------------------------------------------------------------

The orbital elements are published on M.P.E.C. 2020-N08.
The magnitudes graphs are made with Comet for Windows.

---------------------------------------------------------------------

Copyright(C) Seiichi Yoshida (comet@aerith.net). All rights reserved.